AUA66A LKPR-LOWW

Flight info

Callsign AUA66A
Flight time 0h 41m
Altitude 19000
Route VOZB VOZ DCT LANUX LANUX7W
Aircraft A320/M-SDE3FGHIRWY/LB1

Departure

Time 2026-04-22 18:47
Airport Václav Havel Airport Prague (LKPR)

Arrival

Time 2026-04-22 19:29
Airport Vienna International Airport (LOWW)
Time Latitude Longitude Altitude Speed Heading
2026-04-22 18:09 50.10567 14.26361 1186 ft 0 kts 34°
2026-04-22 18:27 50.10560 14.26354 1186 ft 4 kts 26°
2026-04-22 18:27 50.10548 14.26342 1186 ft 4 kts 295°
2026-04-22 18:27 50.10547 14.26354 1186 ft 4 kts 328°
2026-04-22 18:27 50.10549 14.26357 1186 ft 4 kts 32°
2026-04-22 18:28 50.10526 14.26335 1187 ft 4 kts 25°
2026-04-22 18:28 50.10504 14.26325 1188 ft 4 kts 330°
2026-04-22 18:28 50.10497 14.26336 1188 ft 1 kts 303°
2026-04-22 18:28 50.10496 14.26337 1188 ft 1 kts 303°
2026-04-22 18:36 50.10502 14.26323 1188 ft 6 kts 303°
2026-04-22 18:36 50.10535 14.26239 1187 ft 11 kts 295°
2026-04-22 18:36 50.10569 14.26132 1186 ft 10 kts 301°
2026-04-22 18:36 50.10584 14.26035 1185 ft 10 kts 250°
2026-04-22 18:37 50.10542 14.25980 1187 ft 6 kts 212°
2026-04-22 18:37 50.10500 14.25984 1189 ft 8 kts 144°
2026-04-22 18:37 50.10466 14.26050 1191 ft 16 kts 127°
2026-04-22 18:37 50.10375 14.26238 1193 ft 15 kts 127°
2026-04-22 18:38 50.10304 14.26384 1195 ft 19 kts 127°
2026-04-22 18:38 50.10228 14.26542 1199 ft 16 kts 127°
2026-04-22 18:38 50.10158 14.26687 1204 ft 19 kts 127°
2026-04-22 18:39 50.10014 14.26985 1209 ft 19 kts 127°
2026-04-22 18:39 50.09939 14.27142 1211 ft 17 kts 126°
2026-04-22 18:39 50.09874 14.27274 1211 ft 15 kts 129°
2026-04-22 18:39 50.09798 14.27399 1213 ft 18 kts 134°
2026-04-22 18:40 50.09698 14.27557 1215 ft 21 kts 136°
2026-04-22 18:40 50.09606 14.27696 1222 ft 17 kts 135°
2026-04-22 18:40 50.09504 14.27852 1228 ft 22 kts 135°
2026-04-22 18:40 50.09402 14.28007 1233 ft 19 kts 135°
2026-04-22 18:41 50.09317 14.28140 1236 ft 15 kts 135°
2026-04-22 18:41 50.09246 14.28247 1236 ft 9 kts 138°
2026-04-22 18:41 50.09180 14.28282 1238 ft 11 kts 187°
2026-04-22 18:41 50.09139 14.28252 1246 ft 0 kts 213°
2026-04-22 18:45 50.09122 14.28233 1245 ft 10 kts 218°
2026-04-22 18:45 50.09070 14.28147 1243 ft 8 kts 231°
2026-04-22 18:45 50.09088 14.28081 1248 ft 8 kts 306°
2026-04-22 18:46 50.09094 14.28070 1236 ft 0 kts 305°
2026-04-22 18:46 50.09096 14.28065 1236 ft 4 kts 305°
2026-04-22 18:47 50.09248 14.27745 1238 ft 75 kts 307°
2026-04-22 18:47 50.09703 14.26807 1212 ft 139 kts 307°
2026-04-22 18:47 50.10344 14.25460 1536 ft 160 kts 307°
2026-04-22 18:47 50.11018 14.24015 2244 ft 169 kts 309°
2026-04-22 18:48 50.11727 14.22486 2786 ft 184 kts 309°
2026-04-22 18:48 50.12552 14.20789 3160 ft 209 kts 310°
2026-04-22 18:48 50.13493 14.18885 3586 ft 236 kts 310°
2026-04-22 18:48 50.14518 14.16803 3843 ft 246 kts 310°
2026-04-22 18:49 50.15574 14.14636 4547 ft 252 kts 310°
2026-04-22 18:49 50.16634 14.12438 5601 ft 256 kts 308°
2026-04-22 18:49 50.17368 14.09855 6479 ft 270 kts 283°
2026-04-22 18:49 50.17261 14.06891 7301 ft 283 kts 254°
2026-04-22 18:50 50.16198 14.04273 8181 ft 294 kts 223°
2026-04-22 18:50 50.14383 14.02787 9021 ft 301 kts 191°
2026-04-22 18:50 50.12303 14.02937 9852 ft 303 kts 158°
2026-04-22 18:50 50.10559 14.04631 10569 ft 305 kts 134°
2026-04-22 18:51 50.08917 14.06987 10861 ft 329 kts 132°
2026-04-22 18:51 50.07218 14.09519 11273 ft 346 kts 132°
2026-04-22 18:51 50.05467 14.12144 11999 ft 352 kts 132°
2026-04-22 18:51 50.03714 14.14753 12773 ft 356 kts 132°
2026-04-22 18:52 50.01910 14.17420 13561 ft 359 kts 132°
2026-04-22 18:52 50.00083 14.20098 14335 ft 363 kts 132°
2026-04-22 18:52 49.98235 14.22792 15086 ft 365 kts 133°
2026-04-22 18:52 49.96374 14.25489 15829 ft 367 kts 132°
2026-04-22 18:53 49.94494 14.28208 16544 ft 370 kts 132°
2026-04-22 18:53 49.92604 14.30944 17265 ft 372 kts 132°
2026-04-22 18:53 49.90708 14.33691 17997 ft 374 kts 132°
2026-04-22 18:53 49.88796 14.36463 18691 ft 376 kts 132°
2026-04-22 18:54 49.87528 14.38303 19043 ft 378 kts 132°
2026-04-22 18:54 49.85604 14.41092 19246 ft 378 kts 132°
2026-04-22 18:54 49.83665 14.43902 19293 ft 386 kts 132°
2026-04-22 18:54 49.81695 14.46750 19273 ft 388 kts 133°
2026-04-22 18:55 49.79718 14.49600 19275 ft 388 kts 133°
2026-04-22 18:55 49.77733 14.52455 19281 ft 389 kts 133°
2026-04-22 18:55 49.75753 14.55300 19282 ft 389 kts 133°
2026-04-22 18:55 49.73797 14.58107 19282 ft 389 kts 133°
2026-04-22 18:56 49.71812 14.60956 19284 ft 390 kts 132°
2026-04-22 18:56 49.69825 14.63807 19276 ft 391 kts 132°
2026-04-22 18:56 49.67830 14.66667 19279 ft 391 kts 133°
2026-04-22 18:56 49.65837 14.69519 19277 ft 391 kts 133°
2026-04-22 18:57 49.63840 14.72369 19276 ft 391 kts 133°
2026-04-22 18:57 49.61841 14.75215 19275 ft 391 kts 133°
2026-04-22 18:57 49.59841 14.78059 19274 ft 390 kts 133°
2026-04-22 18:57 49.57844 14.80896 19274 ft 390 kts 133°
2026-04-22 18:58 49.55849 14.83731 19269 ft 390 kts 133°
2026-04-22 18:58 49.53851 14.86567 19268 ft 391 kts 133°
2026-04-22 18:58 49.51730 14.89217 19268 ft 393 kts 138°
2026-04-22 18:58 49.49578 14.91734 19269 ft 394 kts 138°
2026-04-22 18:59 49.47394 14.94283 19282 ft 394 kts 138°
2026-04-22 18:59 49.45212 14.96828 19279 ft 394 kts 138°
2026-04-22 18:59 49.43022 14.99381 19286 ft 395 kts 138°
2026-04-22 18:59 49.40828 15.01934 19282 ft 395 kts 138°
2026-04-22 19:00 49.38633 15.04480 19279 ft 395 kts 138°
2026-04-22 19:00 49.36439 15.07021 19278 ft 395 kts 138°
2026-04-22 19:00 49.34238 15.09568 19277 ft 395 kts 138°
2026-04-22 19:00 49.32042 15.12107 19276 ft 395 kts 138°
2026-04-22 19:01 49.29847 15.14643 19275 ft 395 kts 138°
2026-04-22 19:01 49.27652 15.17183 19274 ft 395 kts 138°
2026-04-22 19:01 49.25539 15.19845 19274 ft 393 kts 134°
2026-04-22 19:01 49.23494 15.22616 19275 ft 393 kts 133°
2026-04-22 19:02 49.21474 15.25428 19288 ft 392 kts 132°
2026-04-22 19:02 49.19495 15.28220 19285 ft 392 kts 132°
2026-04-22 19:02 49.17490 15.31054 19282 ft 392 kts 132°
2026-04-22 19:02 49.15458 15.33918 19292 ft 393 kts 132°
2026-04-22 19:03 49.13470 15.36705 19291 ft 393 kts 132°
2026-04-22 19:03 49.11453 15.39515 19285 ft 393 kts 133°
2026-04-22 19:03 49.09402 15.42356 19285 ft 393 kts 133°
2026-04-22 19:03 49.07405 15.45116 19284 ft 393 kts 133°
2026-04-22 19:04 49.05353 15.47947 19283 ft 393 kts 133°
2026-04-22 19:04 49.03357 15.50705 19277 ft 393 kts 133°
2026-04-22 19:04 49.01332 15.53497 19277 ft 393 kts 133°
2026-04-22 19:04 48.99311 15.56274 19265 ft 387 kts 133°
2026-04-22 19:05 48.97353 15.58948 19262 ft 369 kts 133°
2026-04-22 19:05 48.95473 15.61514 19265 ft 359 kts 132°
2026-04-22 19:05 48.93618 15.64052 19254 ft 356 kts 132°
2026-04-22 19:05 48.91780 15.66578 18988 ft 355 kts 132°
2026-04-22 19:06 48.89949 15.69096 18753 ft 354 kts 132°
2026-04-22 19:06 48.88125 15.71603 18514 ft 353 kts 132°
2026-04-22 19:06 48.86301 15.74106 18242 ft 352 kts 132°
2026-04-22 19:07 48.82667 15.79080 17684 ft 350 kts 133°
2026-04-22 19:07 48.80854 15.81548 17412 ft 349 kts 133°
2026-04-22 19:07 48.79045 15.84005 17149 ft 348 kts 133°
2026-04-22 19:07 48.77242 15.86450 16881 ft 347 kts 133°
2026-04-22 19:08 48.75441 15.88893 16625 ft 346 kts 133°
2026-04-22 19:08 48.73646 15.91330 16361 ft 346 kts 133°
2026-04-22 19:08 48.71855 15.93761 16107 ft 345 kts 133°
2026-04-22 19:08 48.70068 15.96182 15849 ft 344 kts 133°
2026-04-22 19:09 48.68315 15.98553 15599 ft 343 kts 133°
2026-04-22 19:09 48.66541 16.00952 15346 ft 341 kts 133°
2026-04-22 19:09 48.64771 16.03342 15090 ft 340 kts 133°
2026-04-22 19:09 48.63008 16.05723 14841 ft 340 kts 134°
2026-04-22 19:10 48.61249 16.08098 14595 ft 339 kts 134°
2026-04-22 19:10 48.59494 16.10467 14350 ft 338 kts 134°
2026-04-22 19:10 48.57741 16.12831 14108 ft 337 kts 134°
2026-04-22 19:10 48.55992 16.15182 13826 ft 334 kts 134°
2026-04-22 19:11 48.54266 16.17498 13415 ft 331 kts 134°
2026-04-22 19:11 48.52547 16.19799 12986 ft 329 kts 134°
2026-04-22 19:11 48.50839 16.22083 12549 ft 328 kts 135°
2026-04-22 19:11 48.49138 16.24360 12105 ft 327 kts 135°
2026-04-22 19:12 48.47441 16.26628 11653 ft 325 kts 135°
2026-04-22 19:12 48.45753 16.28884 11219 ft 324 kts 135°
2026-04-22 19:12 48.44077 16.31123 10929 ft 318 kts 135°
2026-04-22 19:12 48.42441 16.33308 10732 ft 310 kts 135°
2026-04-22 19:13 48.40848 16.35433 10528 ft 303 kts 135°
2026-04-22 19:13 48.39280 16.37524 10329 ft 300 kts 135°
2026-04-22 19:13 48.37716 16.39605 10026 ft 300 kts 135°
2026-04-22 19:13 48.36155 16.41678 9615 ft 298 kts 135°
2026-04-22 19:14 48.34606 16.43733 9214 ft 296 kts 135°
2026-04-22 19:14 48.33066 16.45781 8819 ft 295 kts 135°
2026-04-22 19:14 48.31555 16.47790 8429 ft 293 kts 136°
2026-04-22 19:14 48.30030 16.49813 8039 ft 292 kts 136°
2026-04-22 19:15 48.28991 16.51146 7776 ft 291 kts 138°
2026-04-22 19:15 48.26885 16.53608 7278 ft 288 kts 140°
2026-04-22 19:15 48.25292 16.55374 7046 ft 281 kts 141°
2026-04-22 19:15 48.23745 16.57071 6887 ft 270 kts 141°
2026-04-22 19:16 48.22263 16.58703 6764 ft 259 kts 141°
2026-04-22 19:16 48.20817 16.60306 6550 ft 257 kts 140°
2026-04-22 19:16 48.19404 16.61922 6233 ft 254 kts 135°
2026-04-22 19:16 48.18224 16.63849 5918 ft 248 kts 121°
2026-04-22 19:17 48.17373 16.66065 5607 ft 244 kts 111°
2026-04-22 19:17 48.16630 16.68350 5298 ft 243 kts 111°
2026-04-22 19:17 48.15884 16.70619 5010 ft 243 kts 111°
2026-04-22 19:17 48.15135 16.72879 4744 ft 242 kts 111°
2026-04-22 19:18 48.14386 16.75135 4559 ft 241 kts 111°
2026-04-22 19:18 48.13639 16.77389 4426 ft 242 kts 111°
2026-04-22 19:18 48.12894 16.79641 4296 ft 242 kts 111°
2026-04-22 19:18 48.12148 16.81892 4169 ft 241 kts 111°
2026-04-22 19:19 48.11403 16.84137 4056 ft 241 kts 111°
2026-04-22 19:19 48.10660 16.86376 4002 ft 240 kts 111°
2026-04-22 19:19 48.09924 16.88590 3982 ft 231 kts 111°
2026-04-22 19:19 48.09223 16.90682 3988 ft 221 kts 111°
2026-04-22 19:20 48.08545 16.92709 3985 ft 220 kts 111°
2026-04-22 19:20 48.07862 16.94762 3985 ft 220 kts 111°
2026-04-22 19:20 48.06911 16.96565 3980 ft 227 kts 142°
2026-04-22 19:20 48.05425 16.97366 3892 ft 231 kts 178°
2026-04-22 19:21 48.03861 16.96941 3770 ft 230 kts 201°
2026-04-22 19:21 48.02382 16.96079 3636 ft 225 kts 205°
2026-04-22 19:21 48.00978 16.95187 3547 ft 213 kts 210°
2026-04-22 19:21 47.99956 16.93799 3403 ft 190 kts 249°
2026-04-22 19:22 47.99719 16.92015 3263 ft 166 kts 285°
2026-04-22 19:22 48.00089 16.90470 3150 ft 156 kts 303°
2026-04-22 19:22 48.00567 16.89029 3076 ft 154 kts 303°
2026-04-22 19:22 48.01042 16.87599 3005 ft 154 kts 303°
2026-04-22 19:23 48.01514 16.86170 3008 ft 153 kts 303°
2026-04-22 19:23 48.01986 16.84741 3005 ft 154 kts 303°
2026-04-22 19:23 48.02459 16.83307 3012 ft 154 kts 303°
2026-04-22 19:23 48.02932 16.81873 3012 ft 154 kts 303°
2026-04-22 19:24 48.03404 16.80441 3004 ft 154 kts 303°
2026-04-22 19:24 48.03876 16.79007 3008 ft 154 kts 303°
2026-04-22 19:24 48.04348 16.77573 3012 ft 154 kts 303°
2026-04-22 19:24 48.04820 16.76137 3005 ft 154 kts 303°
2026-04-22 19:25 48.05292 16.74703 3004 ft 154 kts 303°
2026-04-22 19:25 48.05764 16.73264 2896 ft 154 kts 303°
2026-04-22 19:25 48.06234 16.71832 2731 ft 153 kts 303°
2026-04-22 19:25 48.06702 16.70406 2534 ft 152 kts 303°
2026-04-22 19:26 48.07167 16.68988 2340 ft 152 kts 303°
2026-04-22 19:26 48.07623 16.67593 2134 ft 147 kts 303°
2026-04-22 19:26 48.08057 16.66265 1963 ft 136 kts 303°
2026-04-22 19:26 48.08463 16.65025 1765 ft 130 kts 303°
2026-04-22 19:27 48.08860 16.63823 1546 ft 130 kts 302°
2026-04-22 19:27 48.09260 16.62623 1349 ft 129 kts 301°
2026-04-22 19:27 48.09661 16.61423 1197 ft 130 kts 298°
2026-04-22 19:27 48.10043 16.60205 1048 ft 129 kts 299°
2026-04-22 19:28 48.10440 16.59013 890 ft 127 kts 298°
2026-04-22 19:28 48.10821 16.57819 686 ft 126 kts 298°
2026-04-22 19:28 48.11195 16.56680 624 ft 107 kts 296°
2026-04-22 19:28 48.11442 16.55911 620 ft 63 kts 296°
2026-04-22 19:29 48.11580 16.55490 627 ft 35 kts 301°
2026-04-22 19:29 48.11727 16.55248 608 ft 21 kts 316°
2026-04-22 19:29 48.11803 16.55154 617 ft 14 kts 336°
2026-04-22 19:29 48.11856 16.55140 615 ft 0 kts 17°
2026-04-22 19:30 48.11871 16.55150 614 ft 4 kts 32°
2026-04-22 19:31 48.11882 16.55205 613 ft 7 kts 97°
2026-04-22 19:31 48.11863 16.55270 616 ft 7 kts 116°
2026-04-22 19:31 48.11833 16.55358 618 ft 12 kts 117°
2026-04-22 19:31 48.11790 16.55489 610 ft 16 kts 116°
2026-04-22 19:32 48.11738 16.55650 617 ft 19 kts 116°
2026-04-22 19:32 48.11674 16.55847 629 ft 23 kts 116°
2026-04-22 19:32 48.11599 16.56078 619 ft 26 kts 116°
2026-04-22 19:32 48.11517 16.56339 618 ft 29 kts 114°
2026-04-22 19:33 48.11427 16.56603 624 ft 28 kts 116°
2026-04-22 19:33 48.11345 16.56861 618 ft 26 kts 116°
2026-04-22 19:33 48.11279 16.57061 624 ft 17 kts 116°
2026-04-22 19:33 48.11241 16.57176 628 ft 10 kts 115°
2026-04-22 19:34 48.11236 16.57268 622 ft 10 kts 56°
2026-04-22 19:34 48.11310 16.57328 622 ft 15 kts 26°
2026-04-22 19:34 48.11416 16.57406 617 ft 20 kts 26°
2026-04-22 19:34 48.11519 16.57464 607 ft 15 kts
2026-04-22 19:35 48.11621 16.57425 607 ft 16 kts 343°
2026-04-22 19:35 48.11734 16.57377 609 ft 12 kts 344°
2026-04-22 19:35 48.11789 16.57353 603 ft 10 kts 344°
2026-04-22 19:35 48.11847 16.57240 602 ft 9 kts 295°
2026-04-22 19:36 48.11860 16.57131 602 ft 12 kts 291°
2026-04-22 19:36 48.11898 16.57012 600 ft 12 kts 295°
2026-04-22 19:36 48.11939 16.56887 599 ft 13 kts 296°
2026-04-22 19:36 48.11978 16.56768 596 ft 8 kts 295°
2026-04-22 19:37 48.11987 16.56707 596 ft 4 kts 241°
2026-04-22 19:37 48.11970 16.56688 597 ft 2 kts 210°
2026-04-22 19:37 48.11952 16.56672 597 ft 2 kts 211°
2026-04-22 19:37 48.11939 16.56661 598 ft 2 kts 211°
2026-04-22 19:38 48.11932 16.56654 598 ft 0 kts 211°
2026-04-22 19:38 48.11929 16.56651 599 ft 0 kts 211°